AUA883 LOWW-LGSA

Flight info

Callsign AUA883
Flight time N/A
Altitude 37000
Route ARSIN DCT OSDUK DCT SIVLA DCT ODLET DCT SARAX DCT BITLA N132 ROPOX M749 ATV P169 MANOK
Aircraft A321/M-VGDW/C

Departure

Time 2026-04-21 17:16
Airport Vienna International Airport (LOWW)

Arrival

Time N/A
Airport Chania International Airport (LGSA)
Time Latitude Longitude Altitude Speed Heading
2026-04-21 16:24 48.11805 16.57044 609 ft 0 kts 206°
2026-04-21 17:06 48.11806 16.57044 609 ft 0 kts 206°
2026-04-21 17:06 48.11818 16.57053 609 ft 2 kts 206°
2026-04-21 17:07 48.11827 16.57060 609 ft 2 kts 206°
2026-04-21 17:07 48.11845 16.57072 609 ft 1 kts 206°
2026-04-21 17:07 48.11854 16.57079 609 ft 2 kts 192°
2026-04-21 17:07 48.11869 16.57077 609 ft 2 kts 153°
2026-04-21 17:08 48.11880 16.57063 609 ft 0 kts 121°
2026-04-21 17:08 48.11882 16.57055 609 ft 1 kts 114°
2026-04-21 17:08 48.11883 16.57052 609 ft 0 kts 116°
2026-04-21 17:10 48.11882 16.57054 609 ft 0 kts 116°
2026-04-21 17:10 48.11877 16.57071 609 ft 2 kts 115°
2026-04-21 17:11 48.11868 16.57100 609 ft 3 kts 116°
2026-04-21 17:11 48.11855 16.57142 609 ft 5 kts 114°
2026-04-21 17:11 48.11844 16.57198 609 ft 6 kts 98°
2026-04-21 17:11 48.11837 16.57268 609 ft 7 kts 102°
2026-04-21 17:12 48.11813 16.57339 609 ft 8 kts 142°
2026-04-21 17:12 48.11754 16.57371 609 ft 9 kts 163°
2026-04-21 17:12 48.11686 16.57401 609 ft 10 kts 164°
2026-04-21 17:12 48.11624 16.57428 609 ft 8 kts 164°
2026-04-21 17:13 48.11581 16.57447 609 ft 6 kts 164°
2026-04-21 17:13 48.11531 16.57466 609 ft 8 kts 170°
2026-04-21 17:13 48.11475 16.57457 609 ft 8 kts 206°
2026-04-21 17:13 48.11415 16.57412 609 ft 9 kts 207°
2026-04-21 17:14 48.11351 16.57364 609 ft 10 kts 207°
2026-04-21 17:14 48.11279 16.57312 609 ft 11 kts 206°
2026-04-21 17:14 48.11208 16.57262 609 ft 9 kts 205°
2026-04-21 17:14 48.11148 16.57221 609 ft 9 kts 205°
2026-04-21 17:15 48.11088 16.57180 609 ft 8 kts 205°
2026-04-21 17:15 48.11049 16.57109 609 ft 9 kts 269°
2026-04-21 17:15 48.11079 16.57001 609 ft 16 kts 296°
2026-04-21 17:15 48.11197 16.56650 609 ft 72 kts 296°
2026-04-21 17:16 48.11524 16.55670 609 ft 136 kts 295°
2026-04-21 17:16 48.12005 16.54162 817 ft 170 kts 297°
2026-04-21 17:16 48.12453 16.52611 1591 ft 166 kts 288°
2026-04-21 17:16 48.12275 16.50907 2268 ft 178 kts 239°
2026-04-21 17:17 48.11293 16.49773 2677 ft 189 kts 209°
2026-04-21 17:17 48.10040 16.48919 2982 ft 204 kts 206°
2026-04-21 17:17 48.08717 16.47959 3293 ft 219 kts 209°
2026-04-21 17:17 48.07239 16.47194 3593 ft 237 kts 186°
2026-04-21 17:18 48.05541 16.47353 3865 ft 256 kts 171°
2026-04-21 17:18 48.03713 16.47787 4239 ft 274 kts 169°
2026-04-21 17:18 48.01801 16.48237 4780 ft 285 kts 170°
2026-04-21 17:18 47.99854 16.48648 5553 ft 287 kts 171°
2026-04-21 17:19 47.97856 16.48963 6345 ft 290 kts 179°
2026-04-21 17:19 47.95890 16.48434 7098 ft 295 kts 201°
2026-04-21 17:19 47.94040 16.47110 7921 ft 295 kts 209°
2026-04-21 17:19 47.92238 16.45650 8733 ft 297 kts 211°
2026-04-21 17:20 47.90443 16.44191 9549 ft 298 kts 210°
2026-04-21 17:20 47.88535 16.42905 10337 ft 302 kts 196°
2026-04-21 17:20 47.86432 16.42707 10844 ft 315 kts 172°
2026-04-21 17:20 47.84269 16.43477 11194 ft 331 kts 165°
2026-04-21 17:21 47.82005 16.44442 11610 ft 344 kts 164°
2026-04-21 17:21 47.79689 16.45425 12273 ft 348 kts 165°
2026-04-21 17:21 47.77351 16.46390 12990 ft 350 kts 165°
2026-04-21 17:21 47.75006 16.47337 13681 ft 353 kts 166°
2026-04-21 17:22 47.73439 16.47960 14110 ft 355 kts 166°
2026-04-21 17:22 47.70246 16.49223 14949 ft 359 kts 166°
2026-04-21 17:22 47.67816 16.50179 15549 ft 363 kts 166°
2026-04-21 17:22 47.65416 16.51282 16124 ft 368 kts 156°
2026-04-21 17:23 47.63351 16.53542 16680 ft 371 kts 131°
2026-04-21 17:23 47.62033 16.56780 17262 ft 371 kts 112°
2026-04-21 17:23 47.61042 16.60323 17822 ft 375 kts 111°
2026-04-21 17:23 47.60061 16.63859 18334 ft 379 kts 111°
2026-04-21 17:24 47.59026 16.67486 18861 ft 383 kts 112°
2026-04-21 17:24 47.57964 16.71108 19390 ft 386 kts 114°
2026-04-21 17:24 47.56555 16.74497 19868 ft 391 kts 130°
2026-04-21 17:24 47.54551 16.77177 20361 ft 393 kts 147°
2026-04-21 17:25 47.52204 16.79179 20889 ft 394 kts 153°
2026-04-21 17:25 47.49776 16.81083 21379 ft 398 kts 153°
2026-04-21 17:25 47.47317 16.82997 21850 ft 401 kts 153°
2026-04-21 17:25 47.44850 16.84931 22314 ft 405 kts 153°
2026-04-21 17:26 47.42362 16.86895 22791 ft 408 kts 153°
2026-04-21 17:26 47.39852 16.88886 23254 ft 411 kts 153°
2026-04-21 17:26 47.37315 16.90903 23711 ft 414 kts 153°
2026-04-21 17:26 47.34806 16.92901 24162 ft 416 kts 153°
2026-04-21 17:27 47.32239 16.94944 24598 ft 419 kts 153°
2026-04-21 17:27 47.29698 16.96966 24996 ft 422 kts 153°
2026-04-21 17:27 47.27111 16.99021 25406 ft 425 kts 153°
2026-04-21 17:27 47.24504 17.01093 25804 ft 428 kts 153°
2026-04-21 17:28 47.21879 17.03176 26177 ft 430 kts 153°
2026-04-21 17:28 47.19232 17.05275 26546 ft 433 kts 153°
2026-04-21 17:28 47.16579 17.07374 26900 ft 436 kts 153°
2026-04-21 17:28 47.13917 17.09479 27243 ft 439 kts 153°
2026-04-21 17:29 47.11240 17.11594 27586 ft 441 kts 153°
2026-04-21 17:29 47.08528 17.13735 27920 ft 444 kts 153°
2026-04-21 17:29 47.05796 17.15888 28260 ft 446 kts 153°
2026-04-21 17:29 47.03079 17.18027 28572 ft 449 kts 153°
2026-04-21 17:30 47.00319 17.20197 28882 ft 451 kts 153°
2026-04-21 17:30 46.97544 17.22376 29186 ft 454 kts 154°
2026-04-21 17:30 46.94788 17.24538 29454 ft 457 kts 154°
2026-04-21 17:30 46.91979 17.26740 29700 ft 459 kts 154°
2026-04-21 17:31 46.89134 17.28966 29980 ft 462 kts 154°
2026-04-21 17:31 46.86322 17.31163 30217 ft 464 kts 154°
2026-04-21 17:31 46.83453 17.33404 30474 ft 466 kts 154°
2026-04-21 17:31 46.80611 17.35620 30699 ft 468 kts 154°
2026-04-21 17:32 46.78706 17.37105 30862 ft 470 kts 154°
2026-04-21 17:32 46.74870 17.40090 31213 ft 469 kts 154°
2026-04-21 17:32 46.71979 17.42339 31478 ft 469 kts 154°
2026-04-21 17:32 46.69124 17.44556 31713 ft 470 kts 154°
2026-04-21 17:33 46.66215 17.46810 31953 ft 470 kts 154°
2026-04-21 17:33 46.63321 17.49048 32195 ft 471 kts 154°
2026-04-21 17:33 46.60435 17.51280 32429 ft 471 kts 155°
2026-04-21 17:33 46.57570 17.53492 32659 ft 472 kts 155°
2026-04-21 17:34 46.54624 17.55765 32883 ft 473 kts 155°
2026-04-21 17:34 46.51748 17.57979 33123 ft 472 kts 155°
2026-04-21 17:34 46.48830 17.60226 33371 ft 472 kts 155°
2026-04-21 17:34 46.45961 17.62429 33591 ft 472 kts 155°
2026-04-21 17:35 46.43048 17.64666 33838 ft 472 kts 155°
2026-04-21 17:35 46.40182 17.66864 34097 ft 472 kts 156°
2026-04-21 17:35 46.37274 17.69090 34374 ft 471 kts 156°
2026-04-21 17:35 46.34377 17.71304 34654 ft 470 kts 156°
2026-04-21 17:36 46.31500 17.73502 34916 ft 469 kts 156°
2026-04-21 17:36 46.28616 17.75701 35156 ft 469 kts 155°
2026-04-21 17:36 46.25720 17.77907 35384 ft 469 kts 155°
2026-04-21 17:36 46.22870 17.80077 35580 ft 470 kts 155°
2026-04-21 17:37 46.19978 17.82277 35746 ft 471 kts 155°
2026-04-21 17:37 46.17065 17.84488 35901 ft 472 kts 155°
2026-04-21 17:37 46.15114 17.85968 36025 ft 472 kts 155°
2026-04-21 17:37 46.11250 17.88898 36263 ft 473 kts 155°
2026-04-21 17:38 46.08371 17.91078 36419 ft 474 kts 155°
2026-04-21 17:38 46.05453 17.93284 36565 ft 475 kts 155°
2026-04-21 17:38 46.02531 17.95488 36695 ft 476 kts 155°
2026-04-21 17:38 45.99594 17.97701 36834 ft 476 kts 155°
2026-04-21 17:39 45.96691 17.99890 36975 ft 477 kts 155°
2026-04-21 17:39 45.93718 18.02129 37058 ft 478 kts 155°
2026-04-21 17:39 45.87859 18.06537 37060 ft 479 kts 155°
2026-04-21 17:40 45.81961 18.10854 37058 ft 477 kts 159°
2026-04-21 17:40 45.75808 18.14313 37065 ft 474 kts 166°
2026-04-21 17:41 45.69467 18.16769 37066 ft 472 kts 170°
2026-04-21 17:41 45.63147 18.19052 37064 ft 472 kts 170°
2026-04-21 17:42 45.56793 18.21358 37062 ft 472 kts 170°
2026-04-21 17:42 45.50451 18.23659 37055 ft 472 kts 170°
2026-04-21 17:43 45.44070 18.25972 37056 ft 472 kts 170°
2026-04-21 17:43 45.37691 18.28280 37057 ft 472 kts 171°
2026-04-21 17:44 45.31351 18.30569 37046 ft 472 kts 171°
2026-04-21 17:44 45.25000 18.32858 37047 ft 472 kts 171°
2026-04-21 17:45 45.18643 18.35144 37049 ft 471 kts 171°
2026-04-21 17:45 45.12364 18.37938 37052 ft 478 kts 164°
2026-04-21 17:46 45.06327 18.41817 37058 ft 482 kts 156°
2026-04-21 17:46 45.00567 18.46738 37046 ft 485 kts 151°
2026-04-21 17:47 44.94917 18.51861 37054 ft 485 kts 151°
2026-04-21 17:47 44.89232 18.56990 37056 ft 484 kts 151°
2026-04-21 17:48 44.83560 18.62072 37053 ft 484 kts 151°
2026-04-21 17:48 44.77886 18.67143 37060 ft 484 kts 152°
2026-04-21 17:49 44.72306 18.72121 37063 ft 484 kts 153°
2026-04-21 17:49 44.66621 18.77173 37059 ft 485 kts 153°
2026-04-21 17:50 44.60942 18.82209 37057 ft 485 kts 153°
2026-04-21 17:50 44.55269 18.87229 37046 ft 484 kts 153°
2026-04-21 17:51 44.49602 18.92236 37063 ft 483 kts 153°
2026-04-21 17:51 44.46742 18.94758 36939 ft 483 kts 153°
2026-04-21 17:51 44.43891 18.97264 37005 ft 484 kts 153°
2026-04-21 17:52 44.38216 19.02251 37037 ft 483 kts 153°
2026-04-21 17:52 44.32536 19.07232 37046 ft 484 kts 153°
2026-04-21 17:53 44.26843 19.12215 37057 ft 483 kts 153°
2026-04-21 17:53 44.21151 19.17185 37039 ft 482 kts 153°
2026-04-21 17:54 44.15458 19.22144 37054 ft 482 kts 153°
2026-04-21 17:54 44.09769 19.27087 37022 ft 483 kts 153°
2026-04-21 17:55 44.04061 19.32037 37054 ft 484 kts 153°
2026-04-21 17:55 43.98371 19.36965 37054 ft 484 kts 153°
2026-04-21 17:56 43.92622 19.41861 37065 ft 483 kts 154°
2026-04-21 17:56 43.86856 19.46655 37053 ft 482 kts 154°
2026-04-21 17:57 43.81107 19.51428 37038 ft 483 kts 154°
2026-04-21 17:57 43.75372 19.56189 37052 ft 482 kts 154°
2026-04-21 17:58 43.69611 19.60971 37052 ft 482 kts 154°
2026-04-21 17:58 43.63868 19.65723 37031 ft 483 kts 154°
2026-04-21 17:59 43.58105 19.70485 37047 ft 483 kts 154°
2026-04-21 17:59 43.52368 19.75217 37041 ft 481 kts 155°
2026-04-21 18:00 43.46659 19.79911 37036 ft 481 kts 154°
2026-04-21 18:00 43.40895 19.84639 37037 ft 480 kts 154°
2026-04-21 18:01 43.35145 19.89347 37025 ft 481 kts 154°
2026-04-21 18:01 43.29439 19.94008 37042 ft 481 kts 154°
2026-04-21 18:02 43.23699 19.98688 37058 ft 480 kts 154°
2026-04-21 18:02 43.17978 20.03343 37012 ft 479 kts 154°
2026-04-21 18:03 43.12260 20.07981 37002 ft 479 kts 154°
2026-04-21 18:03 43.06497 20.12648 37009 ft 479 kts 154°
2026-04-21 18:04 43.00765 20.17280 37007 ft 478 kts 154°
2026-04-21 18:04 42.95057 20.21880 37007 ft 478 kts 154°
2026-04-21 18:05 42.89360 20.26464 37000 ft 478 kts 154°
2026-04-21 18:05 42.83617 20.31074 36992 ft 479 kts 154°
2026-04-21 18:06 42.77881 20.35668 36992 ft 479 kts 154°
2026-04-21 18:06 42.72139 20.40258 37000 ft 480 kts 154°
2026-04-21 18:07 42.66403 20.44833 37000 ft 480 kts 154°
2026-04-21 18:07 42.60663 20.49398 37000 ft 481 kts 154°
2026-04-21 18:08 42.54868 20.54000 37002 ft 481 kts 154°
2026-04-21 18:08 42.49106 20.58566 37013 ft 482 kts 154°
2026-04-21 18:09 42.43346 20.63121 37010 ft 481 kts 154°
2026-04-21 18:09 42.37550 20.67698 37007 ft 481 kts 154°
2026-04-21 18:10 42.31771 20.72250 37011 ft 480 kts 154°
2026-04-21 18:10 42.26000 20.76786 37009 ft 481 kts 154°
2026-04-21 18:11 42.20261 20.81289 37001 ft 481 kts 154°
2026-04-21 18:11 42.14481 20.85793 36986 ft 481 kts 155°
2026-04-21 18:12 42.08462 20.89665 36988 ft 476 kts 163°
2026-04-21 18:12 42.02264 20.92453 36979 ft 471 kts 169°
2026-04-21 18:13 41.95987 20.94838 36996 ft 470 kts 169°
2026-04-21 18:13 41.89656 20.97252 36997 ft 471 kts 169°
2026-04-21 18:14 41.80252 21.00849 36994 ft 471 kts 169°
2026-04-21 18:15 41.73949 21.03256 36995 ft 471 kts 169°
2026-04-21 18:15 41.67666 21.05654 36981 ft 470 kts 169°
2026-04-21 18:16 41.61364 21.08053 36990 ft 470 kts 169°
2026-04-21 18:16 41.55125 21.10424 36989 ft 469 kts 169°
2026-04-21 18:17 41.48854 21.12802 36994 ft 469 kts 169°
2026-04-21 18:17 41.42559 21.15185 36998 ft 469 kts 169°
2026-04-21 18:18 41.36273 21.17559 36994 ft 469 kts 169°
2026-04-21 18:18 41.30025 21.19913 36986 ft 468 kts 169°
2026-04-21 18:19 41.23756 21.22273 37000 ft 468 kts 169°
2026-04-21 18:19 41.17490 21.24626 37000 ft 468 kts 169°
2026-04-21 18:20 41.11214 21.26980 36986 ft 468 kts 169°
2026-04-21 18:20 41.04981 21.29314 36979 ft 468 kts 169°
2026-04-21 18:21 40.98698 21.31660 36991 ft 467 kts 169°
2026-04-21 18:21 40.92508 21.34167 36981 ft 470 kts 165°
2026-04-21 18:22 40.86459 21.37614 36979 ft 475 kts 157°
2026-04-21 18:22 40.80767 21.42033 36980 ft 479 kts 149°
2026-04-21 18:23 40.75320 21.47102 36976 ft 479 kts 148°
2026-04-21 18:23 40.69889 21.52179 36979 ft 479 kts 148°
2026-04-21 18:24 40.64466 21.57217 36975 ft 479 kts 148°
2026-04-21 18:24 40.59026 21.62250 36975 ft 479 kts 148°
2026-04-21 18:25 40.53598 21.67261 36974 ft 478 kts 149°
2026-04-21 18:25 40.48140 21.72289 36974 ft 478 kts 149°
2026-04-21 18:26 40.42701 21.77288 36974 ft 477 kts 149°
2026-04-21 18:26 40.37289 21.82252 36973 ft 477 kts 149°
2026-04-21 18:27 40.31876 21.87205 36967 ft 478 kts 149°
2026-04-21 18:27 40.26422 21.92188 36961 ft 478 kts 149°
2026-04-21 18:28 40.20979 21.97149 36954 ft 478 kts 149°
2026-04-21 18:28 40.15509 22.02128 36949 ft 477 kts 149°
2026-04-21 18:29 40.10056 22.07080 36950 ft 477 kts 149°
2026-04-21 18:29 40.04646 22.11985 36955 ft 476 kts 149°
2026-04-21 18:30 39.99196 22.16911 36942 ft 476 kts 149°
2026-04-21 18:30 39.93753 22.21824 36936 ft 476 kts 149°
2026-04-21 18:31 39.88345 22.26697 36941 ft 476 kts 149°
2026-04-21 18:31 39.82901 22.31593 36943 ft 476 kts 149°
2026-04-21 18:32 39.77482 22.36456 36937 ft 475 kts 149°
2026-04-21 18:32 39.72012 22.41356 36938 ft 475 kts 149°
2026-04-21 18:33 39.66562 22.46227 36942 ft 474 kts 149°
2026-04-21 18:33 39.61142 22.51061 36946 ft 474 kts 149°
2026-04-21 18:34 39.59295 22.52707 36939 ft 474 kts 149°